Regional Weather Roundup
Issued by NWS

Home | Current Version | Previous Version | Graphics & Text | Print | Product List | Glossary On
Versions: 1 2 3 4 5 6 7 8 9 10 11 12 13 14 15 16 17 18 19 20 21 22 23 24 25 26 27 28 29 30 31 32 33 34 35 36 37 38 39 40 41 42 43 44 45 46 47 48 49 50
495
ASUS44 KLIX 010401
RWRLA
LOUISIANA WEATHER ROUNDUP
NATIONAL WEATHER SERVICE NEW ORLEANS LA
1000 PM CST SAT JAN 31 2015

NOTE: "FAIR" INDICATES FEW OR NO CLOUDS BELOW 12,000 FEET WITH NO
      SIGNIFICANT WEATHER AND/OR OBSTRUCTIONS TO VISIBILITY.
      SKY/WX - SKY CONDITION AND SIGNIFICANT WEATHER.
      TMP - AIR TEMPERATURE.    DP   - DEWPOINT TEMPERATURE.
      RH  - RELATIVE HUMIDITY.  PRES - PRESSURE.
      HX  - HEAT INDEX.         WCI  - WIND CHILL INDEX.

*  THESE STATIONS ARE NOT NWS OR FAA STATIONS AND ARE NOT UNDER
   NWS QUALITY CONTROL.

LAZ040-048-061>063-065-066-069-010500-
SOUTHEAST LOUISIANA

CITY           SKY/WX    TMP DP  RH WIND       PRES   REMARKS
N.O. AUDUBON     N/A     56  53  89 MISG        N/A
N.O. INTL ARPT CLOUDY    57  51  80 E8        30.14F
N.O. LAKEFRONT MOCLDY    59  51  75 E14       30.15F
N.O. DOWNTOWN* NOT AVBL
SLIDELL        PTCLDY    53  48  83 E3        30.17S
BATON ROUGE    CLOUDY    54  47  77 E12       30.13S
BOOTHVILLE     PTCLDY    58  52  80 E8        30.15F
BELLE CHASSE   MOCLDY    58  51  78 E9        30.14F
BOGALUSA*        N/A     53  45  75 SE3       30.19F
GALLIANO*      NOT AVBL
NEW ROADS*     NOT AVBL
GONZALES*      NOT AVBL
HAMMOND*       NOT AVBL
HOUMA*         CLOUDY    56  53  89 E7        30.13S
PORT FOURCHON* MOCLDY    64  57  77 E14G23    30.16S

$$

LAZ041-044-053-054-010500-
SOUTHWEST LOUISIANA

CITY           SKY/WX    TMP DP  RH WIND       PRES   REMARKS
LAKE CHARLES   CLOUDY    59  52  77 SE13      30.07F
LAFAYETTE      CLOUDY    57  50  77 SE8       30.11S
PATTERSON      MOCLDY    57  50  77 E7        30.13R
SALT POINT       N/A     58  52  80 VRB5      30.10S
NEW IBERIA     CLOUDY    57  50  77 E7        30.11F
CHENAULT AIRPK CLOUDY    59  53  79 SE10      30.08F

$$

LAZ027-028-010500-
CENTRAL LOUISIANA

CITY           SKY/WX    TMP DP  RH WIND       PRES   REMARKS
FORT POLK      CLOUDY    57  47  70 SE9       30.06F
ALEXANDRIA INT CLOUDY    56  47  71 SE13      30.08F
ALEXANDRIA     CLOUDY    54  46  74 SE5       30.11S

$$

LAZ001-002-010500-
NORTHWEST LOUISIANA

CITY           SKY/WX    TMP DP  RH WIND       PRES   REMARKS
SHREVEPORT     CLOUDY    56  42  59 SE12      30.04F
BARKSDALE AFB  CLOUDY    54  40  59 SE8       30.04F
DTN SHREVEPORT CLOUDY    54  39  57 SE9       30.04F

$$

LAZ014-016-010500-
NORTHEAST LOUISIANA

CITY           SKY/WX    TMP DP  RH WIND       PRES   REMARKS
MONROE         CLOUDY    54  36  50 SE6       30.11F
TALLULAH       CLOUDY    53  32  44 SE13      30.13F

$$




USA.gov is the U.S. government's official web portal to all federal, state and local government web resources and services.